Time,TemperatureF,DewpointF,PressureIn,WindDirection,WindDirectionDegrees,WindSpeedMPH,WindSpeedGustMPH,Humidity,HourlyPrecipIn,Conditions,Clouds,dailyrainin,SoftwareType,DateUTC
2013-01-30 00:06:00,49.7,41.0,30.30,North,360,0.0,0.0,72,0.00,,,0.00,Wunderground v.1.13,2013-01-30 08:06:00,
2013-01-30 00:15:00,49.5,40.8,30.30,North,32767,0.0,0.0,72,0.00,,,0.00,Wunderground v.1.13,2013-01-30 08:15:00,
2013-01-30 00:20:00,49.4,40.7,30.30,North,360,0.0,0.0,72,0.00,,,0.00,Wunderground v.1.13,2013-01-30 08:20:00,
2013-01-30 00:25:00,49.2,40.6,30.30,North,32767,0.0,0.0,72,0.00,,,0.00,Wunderground v.1.13,2013-01-30 08:25:00,
2013-01-30 00:30:00,49.0,40.7,30.30,North,32767,0.0,0.0,73,0.00,,,0.00,Wunderground v.1.13,2013-01-30 08:30:00,
2013-01-30 00:40:00,48.9,40.6,30.30,North,32767,0.0,0.0,73,0.00,,,0.00,Wunderground v.1.13,2013-01-30 08:40:00,
2013-01-30 00:50:00,49.1,40.8,30.30,North,32767,0.0,0.0,73,0.00,,,0.00,Wunderground v.1.13,2013-01-30 08:50:00,
2013-01-30 00:55:00,49.2,40.9,30.30,North,32767,0.0,0.0,73,0.00,,,0.00,Wunderground v.1.13,2013-01-30 08:55:00,
2013-01-30 01:00:00,49.2,40.6,30.30,North,32767,0.0,0.0,72,0.00,,,0.00,Wunderground v.1.13,2013-01-30 09:00:00,
2013-01-30 01:06:00,49.2,40.6,30.30,North,360,0.0,0.0,72,0.00,,,0.00,Wunderground v.1.13,2013-01-30 09:06:00,
2013-01-30 01:15:00,49.1,40.5,30.30,North,32767,0.0,0.0,72,0.00,,,0.00,Wunderground v.1.13,2013-01-30 09:15:00,
2013-01-30 01:20:00,49.1,40.8,30.29,North,360,0.0,0.0,73,0.00,,,0.00,Wunderground v.1.13,2013-01-30 09:20:00,
2013-01-30 01:25:00,49.2,40.6,30.29,North,32767,0.0,0.0,72,0.00,,,0.00,Wunderground v.1.13,2013-01-30 09:25:00,
2013-01-30 01:30:00,49.4,40.7,30.29,North,360,0.0,0.0,72,0.00,,,0.00,Wunderground v.1.13,2013-01-30 09:30:00,
2013-01-30 01:35:00,49.4,40.7,30.29,North,32767,0.0,0.0,72,0.00,,,0.00,Wunderground v.1.13,2013-01-30 09:35:00,
2013-01-30 01:40:00,49.2,40.6,30.29,North,360,0.0,0.0,72,0.00,,,0.00,Wunderground v.1.13,2013-01-30 09:40:00,
2013-01-30 01:50:00,48.7,40.4,30.29,North,32767,0.0,0.0,73,0.00,,,0.00,Wunderground v.1.13,2013-01-30 09:50:00,
2013-01-30 01:55:00,48.4,40.1,30.29,North,360,0.0,0.0,73,0.00,,,0.00,Wunderground v.1.13,2013-01-30 09:55:00,
2013-01-30 02:00:00,48.0,39.8,30.29,North,32767,0.0,0.0,73,0.00,,,0.00,Wunderground v.1.13,2013-01-30 10:00:00,
2013-01-30 02:06:00,47.5,39.3,30.29,North,32767,0.0,0.0,73,0.00,,,0.00,Wunderground v.1.13,2013-01-30 10:06:00,
2013-01-30 02:15:00,46.4,38.9,30.29,North,360,0.0,0.0,75,0.00,,,0.00,Wunderground v.1.13,2013-01-30 10:15:00,
2013-01-30 02:25:00,45.6,38.5,30.29,North,32767,0.0,0.0,76,0.00,,,0.00,Wunderground v.1.13,2013-01-30 10:25:00,
2013-01-30 02:30:00,45.2,38.4,30.28,North,360,0.0,0.0,77,0.00,,,0.00,Wunderground v.1.13,2013-01-30 10:30:00,
2013-01-30 02:35:00,45.0,38.2,30.28,North,32767,0.0,0.0,77,0.00,,,0.00,Wunderground v.1.13,2013-01-30 10:35:00,
2013-01-30 02:40:00,44.7,38.3,30.28,North,360,0.0,0.0,78,0.00,,,0.00,Wunderground v.1.13,2013-01-30 10:40:00,
2013-01-30 02:45:00,44.4,38.0,30.28,North,32767,0.0,0.0,78,0.00,,,0.00,Wunderground v.1.13,2013-01-30 10:45:00,
2013-01-30 02:55:00,43.9,37.8,30.28,North,360,0.0,0.0,79,0.00,,,0.00,Wunderground v.1.13,2013-01-30 10:55:00,
2013-01-30 03:00:00,43.7,37.6,30.28,North,32767,0.0,0.0,79,0.00,,,0.00,Wunderground v.1.13,2013-01-30 11:00:00,
2013-01-30 03:06:00,43.4,37.3,30.28,North,360,0.0,0.0,79,0.00,,,0.00,Wunderground v.1.13,2013-01-30 11:06:00,
2013-01-30 03:15:00,43.4,38.0,30.28,North,360,0.0,0.0,81,0.00,,,0.00,Wunderground v.1.13,2013-01-30 11:15:00,
2013-01-30 03:25:00,43.3,37.5,30.28,North,32767,0.0,0.0,80,0.00,,,0.00,Wunderground v.1.13,2013-01-30 11:25:00,
2013-01-30 03:35:00,43.0,37.6,30.27,North,32767,0.0,0.0,81,0.00,,,0.00,Wunderground v.1.13,2013-01-30 11:35:00,
2013-01-30 03:40:00,43.5,38.4,30.27,North,360,0.0,0.0,82,0.00,,,0.00,Wunderground v.1.13,2013-01-30 11:40:00,
2013-01-30 03:45:00,44.7,39.5,30.27,North,32767,0.0,0.0,82,0.00,,,0.00,Wunderground v.1.13,2013-01-30 11:45:00,
2013-01-30 03:50:00,45.9,40.1,30.26,North,32767,0.0,0.0,80,0.00,,,0.00,Wunderground v.1.13,2013-01-30 11:50:00,
2013-01-30 03:55:00,46.7,40.2,30.26,North,360,0.0,0.0,78,0.00,,,0.00,Wunderground v.1.13,2013-01-30 11:55:00,
2013-01-30 04:00:00,47.4,40.6,30.26,North,32767,0.0,0.0,77,0.00,,,0.00,Wunderground v.1.13,2013-01-30 12:00:00,
2013-01-30 04:06:00,48.1,40.5,30.26,North,360,0.0,0.0,75,0.00,,,0.00,Wunderground v.1.13,2013-01-30 12:06:00,
2013-01-30 04:15:00,48.5,40.2,30.26,North,360,0.0,0.0,73,0.00,,,0.00,Wunderground v.1.13,2013-01-30 12:15:00,
2013-01-30 04:20:00,48.3,39.7,30.27,North,32767,0.0,0.0,72,0.00,,,0.00,Wunderground v.1.13,2013-01-30 12:20:00,
2013-01-30 04:25:00,47.8,39.6,30.27,North,32767,0.0,0.0,73,0.00,,,0.00,Wunderground v.1.13,2013-01-30 12:25:00,
2013-01-30 04:30:00,47.3,39.1,30.27,North,32767,0.0,0.0,73,0.00,,,0.00,Wunderground v.1.13,2013-01-30 12:30:00,
2013-01-30 04:35:00,46.7,38.9,30.27,North,32767,0.0,0.0,74,0.00,,,0.00,Wunderground v.1.13,2013-01-30 12:35:00,
2013-01-30 04:45:00,45.7,38.2,30.27,North,32767,0.0,0.0,75,0.00,,,0.00,Wunderground v.1.13,2013-01-30 12:45:00,
2013-01-30 04:50:00,45.1,38.0,30.27,North,360,0.0,0.0,76,0.00,,,0.00,Wunderground v.1.13,2013-01-30 12:50:00,
2013-01-30 05:00:00,44.3,37.5,30.27,North,32767,0.0,0.0,77,0.00,,,0.00,Wunderground v.1.13,2013-01-30 13:00:00,
2013-01-30 05:06:00,43.9,37.5,30.27,North,32767,0.0,0.0,78,0.00,,,0.00,Wunderground v.1.13,2013-01-30 13:06:00,
2013-01-30 05:15:00,43.9,38.1,30.27,North,32767,0.0,0.0,80,0.00,,,0.00,Wunderground v.1.13,2013-01-30 13:15:00,
2013-01-30 05:20:00,44.3,38.5,30.27,North,360,0.0,0.0,80,0.00,,,0.00,Wunderground v.1.13,2013-01-30 13:20:00,
2013-01-30 05:25:00,45.0,39.2,30.27,North,360,0.0,0.0,80,0.00,,,0.00,Wunderground v.1.13,2013-01-30 13:25:00,
2013-01-30 05:30:00,45.6,39.5,30.27,North,32767,0.0,0.0,79,0.00,,,0.00,Wunderground v.1.13,2013-01-30 13:30:00,
2013-01-30 05:35:00,46.2,39.7,30.27,North,32767,0.0,0.0,78,0.00,,,0.00,Wunderground v.1.13,2013-01-30 13:35:00,
2013-01-30 05:40:00,46.6,39.8,30.27,North,32767,0.0,0.0,77,0.00,,,0.00,Wunderground v.1.13,2013-01-30 13:40:00,
2013-01-30 05:50:00,47.1,39.6,30.27,North,32767,0.0,0.0,75,0.00,,,0.00,Wunderground v.1.13,2013-01-30 13:50:00,
2013-01-30 05:55:00,47.4,39.5,30.27,North,32767,0.0,0.0,74,0.00,,,0.00,Wunderground v.1.13,2013-01-30 13:55:00,
2013-01-30 06:00:00,47.5,39.6,30.27,North,360,0.0,0.0,74,0.00,,,0.00,Wunderground v.1.13,2013-01-30 14:00:00,
2013-01-30 06:06:00,47.5,39.6,30.27,North,32767,0.0,0.0,74,0.00,,,0.00,Wunderground v.1.13,2013-01-30 14:06:00,
2013-01-30 06:15:00,47.9,39.7,30.27,North,32767,0.0,0.0,73,0.00,,,0.00,Wunderground v.1.13,2013-01-30 14:15:00,
2013-01-30 06:25:00,48.2,39.6,30.27,North,360,0.0,0.0,72,0.00,,,0.00,Wunderground v.1.13,2013-01-30 14:25:00,
2013-01-30 06:35:00,48.2,39.6,30.27,North,360,0.0,0.0,72,0.00,,,0.00,Wunderground v.1.13,2013-01-30 14:35:00,
2013-01-30 06:40:00,48.3,39.3,30.27,North,32767,0.0,0.0,71,0.00,,,0.00,Wunderground v.1.13,2013-01-30 14:40:00,
2013-01-30 06:45:00,48.3,39.3,30.28,North,360,0.0,0.0,71,0.00,,,0.00,Wunderground v.1.13,2013-01-30 14:45:00,
2013-01-30 06:50:00,48.3,39.3,30.28,North,32767,0.0,0.0,71,0.00,,,0.00,Wunderground v.1.13,2013-01-30 14:50:00,
2013-01-30 07:00:00,47.9,38.9,30.29,North,360,0.0,0.0,71,0.00,,,0.00,Wunderground v.1.13,2013-01-30 15:00:00,
2013-01-30 07:06:00,47.5,38.9,30.29,North,360,0.0,0.0,72,0.00,,,0.00,Wunderground v.1.13,2013-01-30 15:06:00,
2013-01-30 07:15:00,46.7,38.1,30.29,North,32767,0.0,0.0,72,0.00,,,0.00,Wunderground v.1.13,2013-01-30 15:15:00,
2013-01-30 07:20:00,46.1,37.9,30.29,North,32767,0.0,0.0,73,0.00,,,0.00,Wunderground v.1.13,2013-01-30 15:20:00,
2013-01-30 07:25:00,45.4,37.6,30.29,North,32767,0.0,0.0,74,0.00,,,0.00,Wunderground v.1.13,2013-01-30 15:25:00,
2013-01-30 07:35:00,44.5,37.4,30.30,North,360,0.0,0.0,76,0.00,,,0.00,Wunderground v.1.13,2013-01-30 15:35:00,
2013-01-30 07:40:00,44.3,37.5,30.30,North,32767,0.0,0.0,77,0.00,,,0.00,Wunderground v.1.13,2013-01-30 15:40:00,
2013-01-30 07:45:00,44.2,37.8,30.30,North,32767,0.0,0.0,78,0.00,,,0.00,Wunderground v.1.13,2013-01-30 15:45:00,
2013-01-30 07:50:00,44.3,37.9,30.30,North,360,0.0,0.0,78,0.00,,,0.00,Wunderground v.1.13,2013-01-30 15:50:00,
2013-01-30 07:55:00,44.3,37.9,30.30,North,32767,0.0,0.0,78,0.00,,,0.00,Wunderground v.1.13,2013-01-30 15:55:00,
2013-01-30 08:00:00,44.2,37.8,30.30,North,32767,0.0,0.0,78,0.00,,,0.00,Wunderground v.1.13,2013-01-30 16:00:00,
2013-01-30 08:06:00,44.2,38.1,30.31,North,360,0.0,0.0,79,0.00,,,0.00,Wunderground v.1.13,2013-01-30 16:06:00,
2013-01-30 08:15:00,44.2,38.1,30.31,North,360,0.0,0.0,79,0.00,,,0.00,Wunderground v.1.13,2013-01-30 16:15:00,
2013-01-30 08:20:00,44.2,38.4,30.31,North,32767,0.0,0.0,80,0.00,,,0.00,Wunderground v.1.13,2013-01-30 16:20:00,
2013-01-30 08:25:00,44.2,38.4,30.31,North,32767,0.0,0.0,80,0.00,,,0.00,Wunderground v.1.13,2013-01-30 16:25:00,
2013-01-30 08:30:00,44.3,38.5,30.31,North,360,0.0,0.0,80,0.00,,,0.00,Wunderground v.1.13,2013-01-30 16:30:00,
2013-01-30 08:35:00,44.4,38.6,30.31,North,32767,0.0,0.0,80,0.00,,,0.00,Wunderground v.1.13,2013-01-30 16:35:00,
2013-01-30 08:45:00,45.0,39.5,30.32,North,360,0.0,0.0,81,0.00,,,0.00,Wunderground v.1.13,2013-01-30 16:45:00,
2013-01-30 08:50:00,45.3,39.8,30.32,North,32767,0.0,0.0,81,0.00,,,0.00,Wunderground v.1.13,2013-01-30 16:50:00,
2013-01-30 08:55:00,46.0,40.5,30.32,North,360,0.0,0.0,81,0.00,,,0.00,Wunderground v.1.13,2013-01-30 16:55:00,
2013-01-30 09:00:00,47.4,41.5,30.32,North,32767,0.0,0.0,80,0.00,,,0.00,Wunderground v.1.13,2013-01-30 17:00:00,
2013-01-30 09:06:00,49.3,42.1,30.32,North,32767,0.0,0.0,76,0.00,,,0.00,Wunderground v.1.13,2013-01-30 17:06:00,
2013-01-30 09:15:00,51.7,43.3,30.32,North,32767,0.0,0.0,73,0.00,,,0.00,Wunderground v.1.13,2013-01-30 17:15:00,
2013-01-30 09:20:00,52.9,43.4,30.32,North,360,0.0,0.0,70,0.00,,,0.00,Wunderground v.1.13,2013-01-30 17:20:00,
2013-01-30 09:25:00,52.6,42.7,30.32,North,360,0.0,0.0,69,0.00,,,0.00,Wunderground v.1.13,2013-01-30 17:25:00,
2013-01-30 09:30:00,52.8,42.9,30.32,North,32767,0.0,0.0,69,0.00,,,0.00,Wunderground v.1.13,2013-01-30 17:30:00,
2013-01-30 09:35:00,53.0,43.1,30.32,North,360,0.0,0.0,69,0.00,,,0.00,Wunderground v.1.13,2013-01-30 17:35:00,
2013-01-30 09:40:00,53.4,43.1,30.32,North,32767,0.0,0.0,68,0.00,,,0.00,Wunderground v.1.13,2013-01-30 17:40:00,
2013-01-30 09:50:00,54.2,42.7,30.32,North,360,0.0,0.0,65,0.00,,,0.00,Wunderground v.1.13,2013-01-30 17:50:00,
2013-01-30 10:00:00,54.4,42.5,30.33,North,32767,0.0,0.0,64,0.00,,,0.00,Wunderground v.1.13,2013-01-30 18:00:00,
2013-01-30 10:06:00,54.5,43.0,30.32,North,32767,0.0,0.0,65,0.00,,,0.00,Wunderground v.1.13,2013-01-30 18:06:00,
2013-01-30 10:15:00,55.1,43.1,30.33,North,32767,0.0,0.0,64,0.00,,,0.00,Wunderground v.1.13,2013-01-30 18:15:00,
2013-01-30 10:25:00,55.7,43.3,30.33,North,360,0.0,0.0,63,0.00,,,0.00,Wunderground v.1.13,2013-01-30 18:25:00,
2013-01-30 10:35:00,56.2,43.3,30.33,North,360,0.0,0.0,62,0.00,,,0.00,Wunderground v.1.13,2013-01-30 18:35:00,
2013-01-30 10:40:00,56.4,43.5,30.33,North,32767,0.0,0.0,62,0.00,,,0.00,Wunderground v.1.13,2013-01-30 18:40:00,
2013-01-30 10:45:00,56.7,43.8,30.33,North,32767,0.0,0.0,62,0.00,,,0.00,Wunderground v.1.13,2013-01-30 18:45:00,
2013-01-30 10:50:00,57.0,43.7,30.32,North,32767,0.0,0.0,61,0.00,,,0.00,Wunderground v.1.13,2013-01-30 18:50:00,
2013-01-30 11:00:00,57.6,43.8,30.33,North,32767,0.0,0.0,60,0.00,,,0.00,Wunderground v.1.13,2013-01-30 19:00:00,
2013-01-30 11:06:00,57.9,44.1,30.33,North,32767,0.0,0.0,60,0.00,,,0.00,Wunderground v.1.13,2013-01-30 19:06:00,
2013-01-30 11:15:00,58.4,44.6,30.32,North,360,0.0,0.0,60,0.00,,,0.00,Wunderground v.1.13,2013-01-30 19:15:00,
2013-01-30 11:20:00,58.7,44.4,30.32,North,32767,0.0,0.0,59,0.00,,,0.00,Wunderground v.1.13,2013-01-30 19:20:00,
2013-01-30 11:25:00,59.0,44.7,30.32,North,32767,0.0,0.0,59,0.00,,,0.00,Wunderground v.1.13,2013-01-30 19:25:00,
2013-01-30 11:30:00,59.2,43.5,30.32,North,32767,0.0,0.0,56,0.00,,,0.00,Wunderground v.1.13,2013-01-30 19:30:00,
2013-01-30 11:35:00,59.6,43.4,30.32,North,32767,0.0,0.0,55,0.00,,,0.00,Wunderground v.1.13,2013-01-30 19:35:00,
2013-01-30 11:40:00,59.8,43.6,30.31,North,32767,0.0,0.0,55,0.00,,,0.00,Wunderground v.1.13,2013-01-30 19:40:00,
2013-01-30 11:45:00,59.8,43.1,30.31,North,360,0.0,0.0,54,0.00,,,0.00,Wunderground v.1.13,2013-01-30 19:45:00,
2013-01-30 11:50:00,59.8,43.1,30.31,North,32767,0.0,0.0,54,0.00,,,0.00,Wunderground v.1.13,2013-01-30 19:50:00,
2013-01-30 11:55:00,59.7,43.0,30.31,North,32767,0.0,0.0,54,0.00,,,0.00,Wunderground v.1.13,2013-01-30 19:55:00,
2013-01-30 12:00:00,59.7,43.5,30.31,North,32767,0.0,0.0,55,0.00,,,0.00,Wunderground v.1.13,2013-01-30 20:00:00,
2013-01-30 12:06:00,60.1,42.9,30.30,North,360,0.0,0.0,53,0.00,,,0.00,Wunderground v.1.13,2013-01-30 20:06:00,
2013-01-30 12:15:00,60.6,43.9,30.30,North,32767,0.0,0.0,54,0.00,,,0.00,Wunderground v.1.13,2013-01-30 20:15:00,
2013-01-30 12:20:00,61.0,44.2,30.30,North,360,0.0,0.0,54,0.00,,,0.00,Wunderground v.1.13,2013-01-30 20:20:00,
2013-01-30 12:25:00,61.4,43.6,30.30,North,32767,0.0,0.0,52,0.00,,,0.00,Wunderground v.1.13,2013-01-30 20:25:00,
2013-01-30 12:35:00,61.8,43.5,30.30,North,32767,0.0,0.0,51,0.00,,,0.00,Wunderground v.1.13,2013-01-30 20:35:00,
2013-01-30 12:45:00,63.2,44.8,30.29,North,360,0.0,0.0,51,0.00,,,0.00,Wunderground v.1.13,2013-01-30 20:45:00,
2013-01-30 12:50:00,64.0,45.0,30.29,North,32767,0.0,0.0,50,0.00,,,0.00,Wunderground v.1.13,2013-01-30 20:50:00,
2013-01-30 12:55:00,64.5,44.9,30.29,North,360,0.0,0.0,49,0.00,,,0.00,Wunderground v.1.13,2013-01-30 20:55:00,
2013-01-30 13:00:00,65.0,44.3,30.28,North,32767,0.0,0.0,47,0.00,,,0.00,Wunderground v.1.13,2013-01-30 21:00:00,
2013-01-30 13:06:00,65.2,44.5,30.28,North,32767,0.0,0.0,47,0.00,,,0.00,Wunderground v.1.13,2013-01-30 21:06:00,
2013-01-30 13:15:00,65.7,44.3,30.28,North,360,0.0,0.0,46,0.00,,,0.00,Wunderground v.1.13,2013-01-30 21:15:00,
2013-01-30 13:20:00,66.1,43.5,30.27,North,32767,0.0,0.0,44,0.00,,,0.00,Wunderground v.1.13,2013-01-30 21:20:00,
2013-01-30 13:25:00,66.6,44.6,30.27,North,360,0.0,0.0,45,0.00,,,0.00,Wunderground v.1.13,2013-01-30 21:25:00,
2013-01-30 13:30:00,67.0,45.5,30.27,North,32767,0.0,0.0,46,0.00,,,0.00,Wunderground v.1.13,2013-01-30 21:30:00,
2013-01-30 13:35:00,67.7,45.0,30.27,North,32767,0.0,0.0,44,0.00,,,0.00,Wunderground v.1.13,2013-01-30 21:35:00,
2013-01-30 13:40:00,67.7,44.4,30.27,North,360,0.0,0.0,43,0.00,,,0.00,Wunderground v.1.13,2013-01-30 21:40:00,
2013-01-30 13:45:00,67.8,45.1,30.27,North,32767,0.0,0.0,44,0.00,,,0.00,Wunderground v.1.13,2013-01-30 21:45:00,
2013-01-30 13:50:00,68.0,45.3,30.27,North,32767,0.0,0.0,44,0.00,,,0.00,Wunderground v.1.13,2013-01-30 21:50:00,
2013-01-30 13:55:00,68.6,45.2,30.27,North,360,0.0,0.0,43,0.00,,,0.00,Wunderground v.1.13,2013-01-30 21:55:00,
2013-01-30 14:00:00,68.7,44.7,30.26,North,32767,0.0,0.0,42,0.00,,,0.00,Wunderground v.1.13,2013-01-30 22:00:00,
2013-01-30 14:06:00,68.8,44.8,30.26,North,32767,0.0,0.0,42,0.00,,,0.00,Wunderground v.1.13,2013-01-30 22:06:00,
2013-01-30 14:15:00,69.8,45.0,30.26,North,32767,0.0,0.0,41,0.00,,,0.00,Wunderground v.1.13,2013-01-30 22:15:00,
2013-01-30 14:20:00,70.1,45.3,30.26,North,360,0.0,0.0,41,0.00,,,0.00,Wunderground v.1.13,2013-01-30 22:20:00,
2013-01-30 14:25:00,70.1,45.9,30.26,North,360,0.0,0.0,42,0.00,,,0.00,Wunderground v.1.13,2013-01-30 22:25:00,
2013-01-30 14:30:00,69.9,46.4,30.26,North,32767,0.0,0.0,43,0.00,,,0.00,Wunderground v.1.13,2013-01-30 22:30:00,
2013-01-30 14:35:00,70.4,46.2,30.25,North,360,0.0,0.0,42,0.00,,,0.00,Wunderground v.1.13,2013-01-30 22:35:00,
2013-01-30 14:40:00,70.7,45.2,30.25,North,360,0.0,0.0,40,0.00,,,0.00,Wunderground v.1.13,2013-01-30 22:40:00,
2013-01-30 14:45:00,70.6,44.4,30.25,North,32767,0.0,0.0,39,0.00,,,0.00,Wunderground v.1.13,2013-01-30 22:45:00,
2013-01-30 14:50:00,70.4,45.6,30.25,North,360,0.0,0.0,41,0.00,,,0.00,Wunderground v.1.13,2013-01-30 22:50:00,
2013-01-30 15:00:00,70.3,45.5,30.25,North,32767,0.0,0.0,41,0.00,,,0.00,Wunderground v.1.13,2013-01-30 23:00:00,
2013-01-30 15:06:00,70.6,45.7,30.25,North,32767,0.0,0.0,41,0.00,,,0.00,Wunderground v.1.13,2013-01-30 23:06:00,
2013-01-30 15:15:00,70.8,45.3,30.25,North,360,0.0,0.0,40,0.00,,,0.00,Wunderground v.1.13,2013-01-30 23:15:00,
2013-01-30 15:20:00,69.7,44.9,30.25,North,32767,0.0,0.0,41,0.00,,,0.00,Wunderground v.1.13,2013-01-30 23:20:00,
2013-01-30 15:25:00,68.5,45.1,30.25,North,32767,0.0,0.0,43,0.00,,,0.00,Wunderground v.1.13,2013-01-30 23:25:00,
2013-01-30 15:35:00,66.5,45.1,30.25,North,360,0.0,0.0,46,0.00,,,0.00,Wunderground v.1.13,2013-01-30 23:35:00,
2013-01-30 15:40:00,66.1,45.8,30.25,North,32767,0.0,0.0,48,0.00,,,0.00,Wunderground v.1.13,2013-01-30 23:40:00,
2013-01-30 15:45:00,65.8,46.1,30.25,North,32767,0.0,0.0,49,0.00,,,0.00,Wunderground v.1.13,2013-01-30 23:45:00,
2013-01-30 15:50:00,65.5,46.4,30.25,North,32767,0.0,0.0,50,0.00,,,0.00,Wunderground v.1.13,2013-01-30 23:50:00,
2013-01-30 15:55:00,65.2,47.1,30.25,North,32767,0.0,0.0,52,0.00,,,0.00,Wunderground v.1.13,2013-01-30 23:55:00,
2013-01-30 16:00:00,64.9,46.8,30.25,North,32767,0.0,0.0,52,0.00,,,0.00,Wunderground v.1.13,2013-01-31 00:00:00,
2013-01-30 16:06:00,64.6,46.1,30.25,North,360,0.0,0.0,51,0.00,,,0.00,Wunderground v.1.13,2013-01-31 00:06:00,
2013-01-30 16:15:00,63.9,45.9,30.25,North,360,0.0,0.0,52,0.00,,,0.00,Wunderground v.1.13,2013-01-31 00:15:00,
2013-01-30 16:20:00,63.7,45.7,30.25,North,32767,0.0,0.0,52,0.00,,,0.00,Wunderground v.1.13,2013-01-31 00:20:00,
2013-01-30 16:25:00,63.5,45.6,30.25,North,32767,0.0,0.0,52,0.00,,,0.00,Wunderground v.1.13,2013-01-31 00:25:00,
2013-01-30 16:30:00,63.4,45.5,30.25,North,360,0.0,0.0,52,0.00,,,0.00,Wunderground v.1.13,2013-01-31 00:30:00,
2013-01-30 16:35:00,63.3,45.4,30.25,North,32767,0.0,0.0,52,0.00,,,0.00,Wunderground v.1.13,2013-01-31 00:35:00,
2013-01-30 16:40:00,63.1,45.2,30.25,North,32767,0.0,0.0,52,0.00,,,0.00,Wunderground v.1.13,2013-01-31 00:40:00,
2013-01-30 16:45:00,62.9,45.0,30.25,North,360,0.0,0.0,52,0.00,,,0.00,Wunderground v.1.13,2013-01-31 00:45:00,
2013-01-30 16:50:00,62.5,45.1,30.25,North,32767,0.0,0.0,53,0.00,,,0.00,Wunderground v.1.13,2013-01-31 00:50:00,
2013-01-30 16:55:00,62.1,44.8,30.25,North,360,0.0,0.0,53,0.00,,,0.00,Wunderground v.1.13,2013-01-31 00:55:00,
2013-01-30 17:00:00,61.8,45.0,30.26,North,360,0.0,0.0,54,0.00,,,0.00,Wunderground v.1.13,2013-01-31 01:00:00,
2013-01-30 17:06:00,61.3,44.0,30.26,North,32767,0.0,0.0,53,0.00,,,0.00,Wunderground v.1.13,2013-01-31 01:06:00,
2013-01-30 17:15:00,60.5,43.3,30.26,North,32767,0.0,0.0,53,0.00,,,0.00,Wunderground v.1.13,2013-01-31 01:15:00,
2013-01-30 17:20:00,60.2,43.0,30.26,North,360,0.0,0.0,53,0.00,,,0.00,Wunderground v.1.13,2013-01-31 01:20:00,
2013-01-30 17:25:00,59.8,42.6,30.26,North,32767,0.0,0.0,53,0.00,,,0.00,Wunderground v.1.13,2013-01-31 01:25:00,
2013-01-30 17:30:00,59.3,42.6,30.26,North,360,0.0,0.0,54,0.00,,,0.00,Wunderground v.1.13,2013-01-31 01:30:00,
2013-01-30 17:35:00,59.0,42.8,30.26,North,32767,0.0,0.0,55,0.00,,,0.00,Wunderground v.1.13,2013-01-31 01:35:00,
2013-01-30 17:45:00,58.0,42.8,30.26,North,32767,0.0,0.0,57,0.00,,,0.00,Wunderground v.1.13,2013-01-31 01:45:00,
2013-01-30 17:55:00,56.7,42.5,30.26,North,360,0.0,0.0,59,0.00,,,0.00,Wunderground v.1.13,2013-01-31 01:55:00,
2013-01-30 18:00:00,56.0,41.9,30.26,North,32767,0.0,0.0,59,0.00,,,0.00,Wunderground v.1.13,2013-01-31 02:00:00,
2013-01-30 18:06:00,55.3,42.1,30.26,North,360,0.0,0.0,61,0.00,,,0.00,Wunderground v.1.13,2013-01-31 02:06:00,
2013-01-30 18:15:00,54.1,41.4,30.26,North,360,0.0,0.0,62,0.00,,,0.00,Wunderground v.1.13,2013-01-31 02:15:00,
2013-01-30 18:20:00,53.5,41.2,30.26,North,32767,0.0,0.0,63,0.00,,,0.00,Wunderground v.1.13,2013-01-31 02:20:00,
2013-01-30 18:30:00,52.5,41.1,30.26,North,360,0.0,0.0,65,0.00,,,0.00,Wunderground v.1.13,2013-01-31 02:30:00,
2013-01-30 18:35:00,52.1,40.7,30.26,North,32767,0.0,0.0,65,0.00,,,0.00,Wunderground v.1.13,2013-01-31 02:35:00,
2013-01-30 18:40:00,51.7,40.7,30.27,North,360,0.0,0.0,66,0.00,,,0.00,Wunderground v.1.13,2013-01-31 02:40:00,
2013-01-30 18:45:00,51.3,40.7,30.27,North,32767,0.0,0.0,67,0.00,,,0.00,Wunderground v.1.13,2013-01-31 02:45:00,
2013-01-30 18:50:00,50.9,40.3,30.27,North,32767,0.0,0.0,67,0.00,,,0.00,Wunderground v.1.13,2013-01-31 02:50:00,
2013-01-30 19:00:00,50.2,40.4,30.26,North,360,0.0,0.0,69,0.00,,,0.00,Wunderground v.1.13,2013-01-31 03:00:00,
2013-01-30 19:06:00,49.7,40.3,30.26,North,360,0.0,0.0,70,0.00,,,0.00,Wunderground v.1.13,2013-01-31 03:06:00,
2013-01-30 19:15:00,49.2,40.2,30.26,North,32767,0.0,0.0,71,0.00,,,0.00,Wunderground v.1.13,2013-01-31 03:15:00,
2013-01-30 19:20:00,49.0,40.0,30.26,North,32767,0.0,0.0,71,0.00,,,0.00,Wunderground v.1.13,2013-01-31 03:20:00,
2013-01-30 19:25:00,48.7,40.1,30.26,North,32767,0.0,0.0,72,0.00,,,0.00,Wunderground v.1.13,2013-01-31 03:25:00,
2013-01-30 19:35:00,48.1,39.9,30.27,North,360,0.0,0.0,73,0.00,,,0.00,Wunderground v.1.13,2013-01-31 03:35:00,
2013-01-30 19:40:00,47.9,39.7,30.26,North,32767,0.0,0.0,73,0.00,,,0.00,Wunderground v.1.13,2013-01-31 03:40:00,
2013-01-30 19:45:00,47.6,39.4,30.26,North,32767,0.0,0.0,73,0.00,,,0.00,Wunderground v.1.13,2013-01-31 03:45:00,
2013-01-30 19:50:00,47.4,39.5,30.26,North,32767,0.0,0.0,74,0.00,,,0.00,Wunderground v.1.13,2013-01-31 03:50:00,
2013-01-30 19:55:00,47.2,39.3,30.26,North,32767,0.0,0.0,74,0.00,,,0.00,Wunderground v.1.13,2013-01-31 03:55:00,
2013-01-30 20:00:00,47.0,39.1,30.26,North,32767,0.0,0.0,74,0.00,,,0.00,Wunderground v.1.13,2013-01-31 04:00:00,
2013-01-30 20:06:00,46.7,39.2,30.26,North,360,0.0,0.0,75,0.00,,,0.00,Wunderground v.1.13,2013-01-31 04:06:00,
2013-01-30 20:15:00,46.4,38.9,30.26,North,360,0.0,0.0,75,0.00,,,0.00,Wunderground v.1.13,2013-01-31 04:15:00,
2013-01-30 20:20:00,46.2,39.1,30.26,North,32767,0.0,0.0,76,0.00,,,0.00,Wunderground v.1.13,2013-01-31 04:20:00,
2013-01-30 20:25:00,46.0,38.9,30.26,North,32767,0.0,0.0,76,0.00,,,0.00,Wunderground v.1.13,2013-01-31 04:25:00,
2013-01-30 20:35:00,45.7,38.6,30.26,North,32767,0.0,0.0,76,0.00,,,0.00,Wunderground v.1.13,2013-01-31 04:35:00,
2013-01-30 20:40:00,45.6,38.8,30.26,North,360,0.0,0.0,77,0.00,,,0.00,Wunderground v.1.13,2013-01-31 04:40:00,
2013-01-30 20:45:00,45.4,38.6,30.26,North,360,0.0,0.0,77,0.00,,,0.00,Wunderground v.1.13,2013-01-31 04:45:00,
2013-01-30 20:50:00,45.2,38.4,30.26,North,32767,0.0,0.0,77,0.00,,,0.00,Wunderground v.1.13,2013-01-31 04:50:00,
2013-01-30 20:55:00,45.1,38.3,30.26,North,360,0.0,0.0,77,0.00,,,0.00,Wunderground v.1.13,2013-01-31 04:55:00,
2013-01-30 21:00:00,45.0,38.6,30.26,North,32767,0.0,0.0,78,0.00,,,0.00,Wunderground v.1.13,2013-01-31 05:00:00,
2013-01-30 21:06:00,45.0,38.6,30.26,North,32767,0.0,0.0,78,0.00,,,0.00,Wunderground v.1.13,2013-01-31 05:06:00,
2013-01-30 21:10:00,44.8,38.4,30.26,North,32767,0.0,0.0,78,0.00,,,0.00,Wunderground v.1.13,2013-01-31 05:10:00,
2013-01-30 21:15:00,44.7,38.3,30.27,North,360,0.0,0.0,78,0.00,,,0.00,Wunderground v.1.13,2013-01-31 05:15:00,
2013-01-30 21:25:00,44.5,38.1,30.26,North,360,0.0,0.0,78,0.00,,,0.00,Wunderground v.1.13,2013-01-31 05:25:00,
2013-01-30 21:30:00,44.4,38.3,30.26,North,32767,0.0,0.0,79,0.00,,,0.00,Wunderground v.1.13,2013-01-31 05:30:00,
2013-01-30 21:35:00,44.3,38.2,30.26,North,32767,0.0,0.0,79,0.00,,,0.00,Wunderground v.1.13,2013-01-31 05:35:00,
2013-01-30 21:40:00,44.2,38.1,30.27,North,360,0.0,0.0,79,0.00,,,0.00,Wunderground v.1.13,2013-01-31 05:40:00,
2013-01-30 21:45:00,44.1,38.0,30.27,North,32767,0.0,0.0,79,0.00,,,0.00,Wunderground v.1.13,2013-01-31 05:45:00,
2013-01-30 21:50:00,44.1,38.0,30.27,North,32767,0.0,0.0,79,0.00,,,0.00,Wunderground v.1.13,2013-01-31 05:50:00,
2013-01-30 21:55:00,44.0,37.9,30.27,North,360,0.0,0.0,79,0.00,,,0.00,Wunderground v.1.13,2013-01-31 05:55:00,
2013-01-30 22:00:00,43.8,38.0,30.27,North,32767,0.0,0.0,80,0.00,,,0.00,Wunderground v.1.13,2013-01-31 06:00:00,
2013-01-30 22:06:00,43.7,37.9,30.27,North,360,0.0,0.0,80,0.00,,,0.00,Wunderground v.1.13,2013-01-31 06:06:00,
2013-01-30 22:15:00,43.4,37.6,30.26,North,360,0.0,0.0,80,0.00,,,0.00,Wunderground v.1.13,2013-01-31 06:15:00,
2013-01-30 22:20:00,43.3,37.5,30.26,North,32767,0.0,0.0,80,0.00,,,0.00,Wunderground v.1.13,2013-01-31 06:20:00,
2013-01-30 22:30:00,43.1,37.7,30.27,North,360,0.0,0.0,81,0.00,,,0.00,Wunderground v.1.13,2013-01-31 06:30:00,
2013-01-30 22:35:00,43.0,37.6,30.27,North,32767,0.0,0.0,81,0.00,,,0.00,Wunderground v.1.13,2013-01-31 06:35:00,
2013-01-30 22:40:00,42.9,37.5,30.27,North,360,0.0,0.0,81,0.00,,,0.00,Wunderground v.1.13,2013-01-31 06:40:00,
2013-01-30 22:45:00,42.8,37.4,30.27,North,32767,0.0,0.0,81,0.00,,,0.00,Wunderground v.1.13,2013-01-31 06:45:00,
2013-01-30 22:50:00,42.7,37.3,30.27,North,32767,0.0,0.0,81,0.00,,,0.00,Wunderground v.1.13,2013-01-31 06:50:00,
2013-01-30 23:00:00,42.5,37.4,30.27,North,360,0.0,0.0,82,0.00,,,0.00,Wunderground v.1.13,2013-01-31 07:00:00,
2013-01-30 23:06:00,42.3,37.2,30.27,North,32767,0.0,0.0,82,0.00,,,0.00,Wunderground v.1.13,2013-01-31 07:06:00,
2013-01-30 23:15:00,42.1,37.0,30.27,North,360,0.0,0.0,82,0.00,,,0.00,Wunderground v.1.13,2013-01-31 07:15:00,
2013-01-30 23:20:00,42.0,36.9,30.27,North,32767,0.0,0.0,82,0.00,,,0.00,Wunderground v.1.13,2013-01-31 07:20:00,
2013-01-30 23:30:00,41.8,36.7,30.27,North,360,0.0,0.0,82,0.00,,,0.00,Wunderground v.1.13,2013-01-31 07:30:00,
2013-01-30 23:35:00,41.7,36.9,30.27,North,360,0.0,0.0,83,0.00,,,0.00,Wunderground v.1.13,2013-01-31 07:35:00,
2013-01-30 23:40:00,41.6,36.8,30.27,North,32767,0.0,0.0,83,0.00,,,0.00,Wunderground v.1.13,2013-01-31 07:40:00,
2013-01-30 23:45:00,41.5,36.7,30.27,North,360,0.0,0.0,83,0.00,,,0.00,Wunderground v.1.13,2013-01-31 07:45:00,
2013-01-30 23:50:00,41.4,36.6,30.27,North,32767,0.0,0.0,83,0.00,,,0.00,Wunderground v.1.13,2013-01-31 07:50:00,